| time (UTC) | temp C | wind direction | speed KPH | gust KPH | rain 1hr cm | rain 24hr cm | rain mn cm | humidity % | barometer mb |
| 20260505024350 | 13 | 107 | 4.8 | 8.0 | 0.00 | 0.00 | 0.00 | 55 | 1010.1 |
| 20260505023847 | 13 | 128 | 6.4 | 6.4 | 0.00 | 0.00 | 0.00 | 55 | 1010.1 |
| 20260505023344 | 13 | 127 | 4.8 | 8.0 | 0.00 | 0.00 | 0.00 | 54 | 1010.1 |
| 20260505022842 | 14 | 130 | 6.4 | 8.0 | 0.00 | 0.00 | 0.00 | 54 | 1010.1 |
| 20260505022338 | 14 | 118 | 6.4 | 11.3 | 0.00 | 0.00 | 0.00 | 53 | 1010.6 |
| 20260505021836 | 14 | 149 | 6.4 | 8.0 | 0.00 | 0.00 | 0.00 | 53 | 1010.4 |
| 20260505021332 | 14 | 131 | 6.4 | 8.0 | 0.00 | 0.00 | 0.00 | 52 | 1010.4 |
| 20260505020828 | 14 | 124 | 6.4 | 9.7 | 0.00 | 0.00 | 0.00 | 52 | 1010.4 |
| 20260505020324 | 14 | 130 | 8.0 | 9.7 | 0.00 | 0.00 | 0.00 | 52 | 1010.2 |
| 20260505015820 | 15 | 133 | 4.8 | 11.3 | 0.00 | 0.00 | 0.00 | 51 | 1010.1 |
| 20260505015318 | 15 | 125 | 6.4 | 8.0 | 0.00 | 0.00 | 0.00 | 51 | 1010.1 |
| 20260505014815 | 15 | 119 | 4.8 | 8.0 | 0.00 | 0.00 | 0.00 | 51 | 1010.0 |
| 20260505014312 | 15 | 126 | 4.8 | 9.7 | 0.00 | 0.00 | 0.00 | 50 | 1010.0 |
| 20260505013808 | 15 | 127 | 4.8 | 8.0 | 0.00 | 0.00 | 0.00 | 50 | 1009.9 |
| 20260505013306 | 15 | 133 | 4.8 | 6.4 | 0.00 | 0.00 | 0.00 | 50 | 1010.0 |
| 20260505012804 | 15 | 71 | 3.2 | 8.0 | 0.00 | 0.00 | 0.00 | 49 | 1009.8 |
| 20260505012301 | 15 | 128 | 4.8 | 12.9 | 0.00 | 0.00 | 0.00 | 48 | 1009.9 |
| 20260505011757 | 15 | 134 | 6.4 | 8.0 | 0.00 | 0.00 | 0.00 | 48 | 1009.9 |
| 20260505011254 | 15 | 156 | 8.0 | 9.7 | 0.00 | 0.00 | 0.00 | 47 | 1009.8 |
| 20260505010750 | 15 | 122 | 4.8 | 11.3 | 0.00 | 0.00 | 0.00 | 47 | 1009.7 |
| 20260505010246 | 15 | 125 | 8.0 | 11.3 | 0.00 | 0.00 | 0.00 | 46 | 1009.5 |
| 20260505005743 | 16 | 136 | 6.4 | 9.7 | 0.00 | 0.00 | 0.00 | 46 | 1009.6 |
| 20260505005240 | 16 | 142 | 11.3 | 12.9 | 0.00 | 0.00 | 0.00 | 46 | 1009.6 |
| 20260505004737 | 16 | 137 | 8.0 | 12.9 | 0.00 | 0.00 | 0.00 | 45 | 1009.3 |
| 20260505004233 | 16 | 148 | 8.0 | 11.3 | 0.00 | 0.00 | 0.00 | 45 | 1009.1 |
| 20260505003730 | 16 | 135 | 8.0 | 11.3 | 0.00 | 0.00 | 0.00 | 45 | 1009.3 |
| 20260505003228 | 16 | 98 | 4.8 | 9.7 | 0.00 | 0.00 | 0.00 | 45 | 1009.1 |
| 20260505002724 | 16 | 146 | 9.7 | 11.3 | 0.00 | 0.00 | 0.00 | 44 | 1009.0 |
| 20260505002222 | 16 | 128 | 8.0 | 14.5 | 0.00 | 0.00 | 0.00 | 44 | 1008.8 |
| 20260505001719 | 16 | 139 | 8.0 | 9.7 | 0.00 | 0.00 | 0.00 | 44 | 1008.7 |
| 20260505001217 | 16 | 127 | 6.4 | 16.1 | 0.00 | 0.00 | 0.00 | 44 | 1008.6 |
| 20260505000714 | 16 | 130 | 4.8 | 8.0 | 0.00 | 0.00 | 0.00 | 44 | 1008.6 |
| 20260505000211 | 17 | 131 | 8.0 | 14.5 | 0.00 | 0.00 | 0.00 | 43 | 1008.5 |
| 20260504235708 | 17 | 147 | 6.4 | 9.7 | 0.00 | 0.00 | 0.00 | 43 | 1008.4 |
| 20260504235204 | 17 | 126 | 6.4 | 8.0 | 0.00 | 0.00 | 0.00 | 42 | 1008.1 |
| 20260504234701 | 17 | 132 | 4.8 | 14.5 | 0.00 | 0.00 | 0.00 | 41 | 1008.2 |
| 20260504234158 | 17 | 126 | 6.4 | 16.1 | 0.00 | 0.00 | 0.00 | 41 | 1007.9 |
| 20260504233654 | 17 | 168 | 8.0 | 12.9 | 0.00 | 0.00 | 0.00 | 41 | 1008.2 |
| 20260504233150 | 17 | 126 | 4.8 | 16.1 | 0.00 | 0.00 | 0.00 | 40 | 1007.9 |
| 20260504232648 | 18 | 158 | 9.7 | 9.7 | 0.00 | 0.00 | 0.00 | 40 | 1007.9 |
| 20260504232145 | 18 | 121 | 8.0 | 16.1 | 0.00 | 0.00 | 0.00 | 39 | 1007.8 |
| 20260504231642 | 18 | 115 | 8.0 | 14.5 | 0.00 | 0.00 | 0.00 | 39 | 1007.6 |
| 20260504231138 | 18 | 119 | 6.4 | 17.7 | 0.00 | 0.00 | 0.00 | 38 | 1007.5 |
| 20260504230634 | 18 | 130 | 6.4 | 12.9 | 0.00 | 0.00 | 0.00 | 38 | 1007.6 |
| 20260504230133 | 19 | 191 | 4.8 | 14.5 | 0.00 | 0.00 | 0.00 | 37 | 1007.6 |
| 20260504225631 | 19 | 146 | 8.0 | 12.9 | 0.00 | 0.00 | 0.00 | 36 | 1007.2 |
| 20260504225127 | 19 | 157 | 8.0 | 8.0 | 0.00 | 0.00 | 0.00 | 36 | 1007.3 |
| 20260504224624 | 19 | 137 | 4.8 | 11.3 | 0.00 | 0.00 | 0.00 | 36 | 1007.2 |
| 20260504224120 | 20 | 116 | 6.4 | 11.3 | 0.00 | 0.00 | 0.00 | 35 | 1007.1 |
| 20260504223617 | 20 | 131 | 8.0 | 9.7 | 0.00 | 0.00 | 0.00 | 34 | 1007.0 |
| 20260504223113 | 20 | 136 | 8.0 | 16.1 | 0.00 | 0.00 | 0.00 | 32 | 1007.1 |
| 20260504222610 | 21 | 111 | 3.2 | 12.9 | 0.00 | 0.00 | 0.00 | 30 | 1006.8 |
| 20260504222108 | 21 | 116 | 9.7 | 9.7 | 0.00 | 0.00 | 0.00 | 29 | 1006.9 |
| 20260504221605 | 21 | 304 | 4.8 | 8.0 | 0.00 | 0.00 | 0.00 | 28 | 1006.9 |
| 20260504221101 | 22 | 209 | 0.0 | 12.9 | 0.00 | 0.00 | 0.00 | 28 | 1006.9 |
| 20260504220558 | 21 | 139 | 4.8 | 9.7 | 0.00 | 0.00 | 0.00 | 28 | 1006.8 |
| 20260504220055 | 21 | 159 | 4.8 | 6.4 | 0.00 | 0.00 | 0.00 | 29 | 1006.8 |
| 20260504215551 | 21 | 142 | 6.4 | 9.7 | 0.00 | 0.00 | 0.00 | 29 | 1007.0 |
| 20260504215049 | 22 | 157 | 8.0 | 9.7 | 0.00 | 0.00 | 0.00 | 28 | 1007.1 |
| 20260504214544 | 22 | 167 | 9.7 | 9.7 | 0.00 | 0.00 | 0.00 | 27 | 1006.8 |
| 20260504214041 | 22 | 138 | 9.7 | 9.7 | 0.00 | 0.00 | 0.00 | 27 | 1006.9 |
| 20260504213538 | 22 | 161 | 4.8 | 6.4 | 0.00 | 0.00 | 0.00 | 27 | 1006.7 |
| 20260504213035 | 23 | 261 | 6.4 | 8.0 | 0.00 | 0.00 | 0.00 | 26 | 1006.9 |
| 20260504212531 | 23 | 219 | 3.2 | 9.7 | 0.00 | 0.00 | 0.00 | 27 | 1006.9 |
| 20260504212028 | 22 | 144 | 8.0 | 9.7 | 0.00 | 0.00 | 0.00 | 26 | 1006.9 |
| 20260504211525 | 22 | 159 | 6.4 | 12.9 | 0.00 | 0.00 | 0.00 | 27 | 1006.8 |
| 20260504211022 | 22 | 271 | 3.2 | 9.7 | 0.00 | 0.00 | 0.00 | 26 | 1006.8 |
| 20260504210519 | 23 | 159 | 3.2 | 6.4 | 0.00 | 0.00 | 0.00 | 26 | 1006.9 |
| 20260504210016 | 22 | 115 | 4.8 | 8.0 | 0.00 | 0.00 | 0.00 | 26 | 1007.1 |
| 20260504205514 | 22 | 162 | 1.6 | 9.7 | 0.00 | 0.00 | 0.00 | 26 | 1006.9 |
| 20260504205012 | 22 | 151 | 12.9 | 14.5 | 0.00 | 0.00 | 0.00 | 26 | 1006.8 |
| 20260504204509 | 22 | 139 | 4.8 | 8.0 | 0.00 | 0.00 | 0.00 | 27 | 1007.0 |
| 20260504204008 | 22 | 140 | 9.7 | 14.5 | 0.00 | 0.00 | 0.00 | 27 | 1007.0 |
| 20260504203506 | 22 | 135 | 8.0 | 14.5 | 0.00 | 0.00 | 0.00 | 27 | 1006.8 |
| 20260504203002 | 23 | 215 | 6.4 | 12.9 | 0.00 | 0.00 | 0.00 | 25 | 1006.7 |
| 20260504202458 | 23 | 182 | 3.2 | 19.3 | 0.00 | 0.00 | 0.00 | 26 | 1006.6 |
| 20260504201955 | 23 | 158 | 6.4 | 8.0 | 0.00 | 0.00 | 0.00 | 26 | 1006.9 |
| 20260504201452 | 22 | 205 | 3.2 | 9.7 | 0.00 | 0.00 | 0.00 | 26 | 1006.9 |
| 20260504200950 | 22 | 292 | 11.3 | 19.3 | 0.00 | 0.00 | 0.00 | 26 | 1006.9 |
| 20260504200446 | 22 | 254 | 4.8 | 9.7 | 0.00 | 0.00 | 0.00 | 25 | 1006.9 |
| 20260504195943 | 22 | 239 | 4.8 | 8.0 | 0.00 | 0.00 | 0.00 | 26 | 1006.9 |
| 20260504195439 | 22 | 112 | 3.2 | 17.7 | 0.00 | 0.00 | 0.00 | 27 | 1007.1 |
| 20260504194936 | 22 | 154 | 6.4 | 12.9 | 0.00 | 0.00 | 0.00 | 26 | 1007.2 |
| 20260504194432 | 21 | 93 | 6.4 | 14.5 | 0.00 | 0.00 | 0.00 | 26 | 1007.1 |
| 20260504193928 | 21 | 133 | 6.4 | 20.9 | 0.00 | 0.00 | 0.00 | 26 | 1007.0 |
| 20260504193425 | 22 | 126 | 0.0 | 14.5 | 0.00 | 0.00 | 0.00 | 26 | 1007.0 |
| 20260504192924 | 21 | 155 | 3.2 | 12.9 | 0.00 | 0.00 | 0.00 | 26 | 1007.1 |
| 20260504192421 | 21 | 146 | 8.0 | 17.7 | 0.00 | 0.00 | 0.00 | 27 | 1007.0 |
| 20260504191920 | 21 | 158 | 11.3 | 14.5 | 0.00 | 0.00 | 0.00 | 25 | 1007.2 |
| 20260504191417 | 22 | 268 | 3.2 | 12.9 | 0.00 | 0.00 | 0.00 | 25 | 1007.2 |
| 20260504190912 | 21 | 252 | 1.6 | 12.9 | 0.00 | 0.00 | 0.00 | 27 | 1007.2 |
| 20260504190408 | 21 | 147 | 6.4 | 9.7 | 0.00 | 0.00 | 0.00 | 27 | 1007.2 |
| 20260504185905 | 21 | 162 | 3.2 | 14.5 | 0.00 | 0.00 | 0.00 | 27 | 1007.4 |
| 20260504185402 | 21 | 116 | 6.4 | 20.9 | 0.00 | 0.00 | 0.00 | 26 | 1007.3 |
| 20260504184858 | 21 | 152 | 9.7 | 17.7 | 0.00 | 0.00 | 0.00 | 25 | 1007.5 |
| 20260504184354 | 21 | 108 | 3.2 | 9.7 | 0.00 | 0.00 | 0.00 | 27 | 1007.6 |
| 20260504183850 | 21 | 227 | 4.8 | 19.3 | 0.00 | 0.00 | 0.00 | 26 | 1007.5 |
| 20260504183348 | 21 | 145 | 8.0 | 11.3 | 0.00 | 0.00 | 0.00 | 26 | 1007.5 |
| 20260504182845 | 21 | 157 | 8.0 | 16.1 | 0.00 | 0.00 | 0.00 | 25 | 1007.6 |
| 20260504182343 | 20 | 155 | 11.3 | 12.9 | 0.00 | 0.00 | 0.00 | 27 | 1007.8 |
| 20260504181839 | 20 | 141 | 14.5 | 16.1 | 0.00 | 0.00 | 0.00 | 26 | 1007.6 |
| 20260504181337 | 21 | 191 | 3.2 | 12.9 | 0.00 | 0.00 | 0.00 | 26 | 1007.6 |
| 20260504180835 | 20 | 256 | 8.0 | 14.5 | 0.00 | 0.00 | 0.00 | 27 | 1007.7 |
| 20260504180333 | 20 | 164 | 9.7 | 20.9 | 0.00 | 0.00 | 0.00 | 26 | 1007.8 |
| 20260504175832 | 20 | 157 | 12.9 | 14.5 | 0.00 | 0.00 | 0.00 | 27 | 1007.7 |
| 20260504175328 | 21 | 127 | 16.1 | 17.7 | 0.00 | 0.00 | 0.00 | 26 | 1007.5 |
| 20260504174826 | 20 | 202 | 4.8 | 14.5 | 0.00 | 0.00 | 0.00 | 28 | 1007.8 |
| 20260504174323 | 20 | 120 | 8.0 | 17.7 | 0.00 | 0.00 | 0.00 | 27 | 1007.6 |
| 20260504173820 | 20 | 163 | 4.8 | 16.1 | 0.00 | 0.00 | 0.00 | 27 | 1007.9 |
| 20260504173317 | 20 | 238 | 9.7 | 14.5 | 0.00 | 0.00 | 0.00 | 28 | 1008.3 |
| 20260504172814 | 20 | 293 | 4.8 | 9.7 | 0.00 | 0.00 | 0.00 | 27 | 1008.0 |
| 20260504172310 | 20 | 150 | 11.3 | 12.9 | 0.00 | 0.00 | 0.00 | 28 | 1008.3 |
| 20260504171806 | 20 | 192 | 3.2 | 9.7 | 0.00 | 0.00 | 0.00 | 28 | 1008.2 |
| 20260504171304 | 20 | 129 | 6.4 | 9.7 | 0.00 | 0.00 | 0.00 | 29 | 1008.2 |
| 20260504170801 | 19 | 114 | 4.8 | 12.9 | 0.00 | 0.00 | 0.00 | 29 | 1008.3 |
| 20260504170258 | 19 | 137 | 11.3 | 24.1 | 0.00 | 0.00 | 0.00 | 28 | 1008.1 |
| 20260504160216 | 18 | 193 | 8.0 | 16.1 | 0.00 | 0.00 | 0.00 | 31 | 1008.9 |
| 20260504151144 | 18 | 168 | 3.2 | 14.5 | 0.00 | 0.00 | 0.00 | 30 | 1009.3 |
| 20260504150641 | 17 | 200 | 3.2 | 11.3 | 0.00 | 0.00 | 0.00 | 32 | 1009.4 |
| 20260504150138 | 17 | 269 | 9.7 | 17.7 | 0.00 | 0.00 | 0.00 | 32 | 1009.2 |
| 20260504141107 | 16 | 240 | 9.7 | 14.5 | 0.00 | 0.00 | 0.00 | 35 | 1009.6 |
| 20260504140603 | 16 | 306 | 9.7 | 14.5 | 0.00 | 0.00 | 0.00 | 36 | 1009.8 |
| 20260504130527 | 13 | 144 | 3.2 | 6.4 | 0.00 | 0.00 | 0.00 | 43 | 1010.6 |
| 20260504110415 | 9 | 132 | 3.2 | 6.4 | 0.00 | 0.00 | 0.00 | 48 | 1010.7 |
| 20260504100332 | 8 | 140 | 4.8 | 9.7 | 0.00 | 0.00 | 0.00 | 50 | 1010.8 |
| 20260504081725 | 8 | 126 | 4.8 | 6.4 | 0.00 | 0.00 | 0.00 | 49 | 1010.9 |
| 20260504081221 | 8 | 123 | 4.8 | 4.8 | 0.00 | 0.00 | 0.00 | 49 | 1010.7 |
| 20260504080718 | 8 | 118 | 3.2 | 6.4 | 0.00 | 0.00 | 0.00 | 49 | 1010.8 |
| 20260504080215 | 8 | 114 | 4.8 | 4.8 | 0.00 | 0.00 | 0.00 | 48 | 1010.7 |
| 20260504070142 | 8 | 123 | 4.8 | 6.4 | 0.00 | 0.00 | 0.00 | 47 | 1010.4 |
| 20260504050531 | 7 | 128 | 3.2 | 4.8 | 0.00 | 0.00 | 0.00 | 46 | 1010.5 |
| 20260504045525 | 7 | 127 | 4.8 | 4.8 | 0.00 | 0.00 | 0.00 | 49 | 1010.2 |
| 20260504045020 | 7 | 94 | 3.2 | 6.4 | 0.00 | 0.00 | 0.00 | 49 | 1010.7 |
| 20260504044518 | 7 | 132 | 4.8 | 6.4 | 0.00 | 0.00 | 0.00 | 50 | 1010.5 |
| 20260504044014 | 6 | 132 | 3.2 | 6.4 | 0.00 | 0.00 | 0.00 | 49 | 1010.7 |
| 20260504043511 | 6 | 133 | 4.8 | 6.4 | 0.00 | 0.00 | 0.00 | 50 | 1010.7 |
| 20260504043009 | 6 | 138 | 3.2 | 4.8 | 0.00 | 0.00 | 0.00 | 52 | 1010.6 |
| 20260504042505 | 6 | 130 | 3.2 | 6.4 | 0.00 | 0.00 | 0.00 | 51 | 1010.6 |
| 20260504042003 | 6 | 122 | 3.2 | 4.8 | 0.00 | 0.00 | 0.00 | 53 | 1010.5 |
| 20260504041459 | 6 | 109 | 3.2 | 6.4 | 0.00 | 0.00 | 0.00 | 51 | 1010.4 |
| 20260504040954 | 6 | 138 | 4.8 | 4.8 | 0.00 | 0.00 | 0.00 | 51 | 1010.4 |
| 20260504040452 | 5 | 106 | 0.0 | 3.2 | 0.00 | 0.00 | 0.00 | 53 | 1010.2 |
| 20260504035948 | 5 | 74 | 3.2 | 3.2 | 0.00 | 0.00 | 0.00 | 54 | 1010.2 |
| 20260504035446 | 5 | 109 | 1.6 | 3.2 | 0.00 | 0.00 | 0.00 | 55 | 1009.9 |
| 20260504034942 | 5 | 84 | 3.2 | 3.2 | 0.00 | 0.00 | 0.00 | 56 | 1010.1 |
| 20260504034440 | 4 | 110 | 3.2 | 3.2 | 0.00 | 0.00 | 0.00 | 60 | 1010.2 |
| 20260504033937 | 4 | 105 | 3.2 | 3.2 | 0.00 | 0.00 | 0.00 | 59 | 1010.1 |
| 20260504033434 | 4 | 110 | 1.6 | 3.2 | 0.00 | 0.00 | 0.00 | 60 | 1010.0 |
| 20260504032931 | 3 | 125 | 1.6 | 3.2 | 0.00 | 0.00 | 0.00 | 61 | 1010.1 |
| 20260504032428 | 3 | 137 | 3.2 | 3.2 | 0.00 | 0.00 | 0.00 | 61 | 1010.2 |
| 20260504031925 | 3 | 124 | 1.6 | 4.8 | 0.00 | 0.00 | 0.00 | 62 | 1009.8 |
| 20260504031422 | 3 | 84 | 1.6 | 3.2 | 0.00 | 0.00 | 0.00 | 63 | 1010.1 |
| 20260504030919 | 3 | 132 | 3.2 | 3.2 | 0.00 | 0.00 | 0.00 | 61 | 1010.0 |
| 20260504030416 | 3 | 115 | 3.2 | 3.2 | 0.00 | 0.00 | 0.00 | 62 | 1010.0 |
| 20260504025912 | 4 | 144 | 3.2 | 3.2 | 0.00 | 0.00 | 0.00 | 60 | 1010.0 |
| 20260504025409 | 4 | 132 | 1.6 | 3.2 | 0.00 | 0.00 | 0.00 | 61 | 1009.9 |
| 20260504024906 | 4 | 122 | 1.6 | 3.2 | 0.00 | 0.00 | 0.00 | 58 | 1009.9 |